TimeCDT,TemperatureF,Dew PointF,Humidity,Sea Level PressureIn,VisibilityMPH,Wind Direction,Wind SpeedMPH,Gust SpeedMPH,PrecipitationIn,Events,Conditions,WindDirDegrees,DateUTC
12:58 AM,48.6,45.0,87,30.12,10.0,Calm,Calm,-,N/A,,Overcast,0,2013-05-06 05:58:00
1:58 AM,48.4,45.1,89,30.12,10.0,Calm,Calm,-,N/A,,Clear,0,2013-05-06 06:58:00
2:58 AM,44.6,42.6,93,30.10,10.0,NE,6.9,-,N/A,,Clear,40,2013-05-06 07:58:00
3:58 AM,45.5,44.6,97,30.10,10.0,NE,2.3,-,N/A,,Clear,50,2013-05-06 08:58:00
4:58 AM,46.2,45.5,97,30.10,10.0,NE,3.5,-,N/A,,Clear,40,2013-05-06 09:58:00
5:58 AM,43.2,42.1,96,30.09,10.0,North,4.6,-,N/A,,Clear,350,2013-05-06 10:58:00
6:58 AM,41.9,41.2,97,30.12,10.0,NNE,4.6,-,N/A,,Clear,30,2013-05-06 11:58:00
7:58 AM,48.9,46.4,91,30.13,10.0,NNE,2.3,-,N/A,,Clear,20,2013-05-06 12:58:00
8:58 AM,55.9,47.3,73,30.13,8.0,Variable,2.3,-,N/A,,Clear,0,2013-05-06 13:58:00
9:58 AM,61.7,47.3,59,30.14,10.0,Variable,3.5,-,N/A,,Clear,0,2013-05-06 14:58:00
10:58 AM,66.2,48.2,52,30.14,10.0,ESE,3.5,-,N/A,,Partly Cloudy,120,2013-05-06 15:58:00
11:58 AM,69.3,47.7,46,30.12,10.0,Variable,3.5,-,N/A,,Partly Cloudy,0,2013-05-06 16:58:00
12:58 PM,70.2,46.8,43,30.10,10.0,NNE,5.8,-,N/A,,Scattered Clouds,30,2013-05-06 17:58:00
1:58 PM,72.9,46.6,39,30.06,10.0,East,6.9,-,N/A,,Partly Cloudy,100,2013-05-06 18:58:00
2:58 PM,75.6,44.6,33,30.06,10.0,Variable,3.5,-,N/A,,Partly Cloudy,0,2013-05-06 19:58:00
3:58 PM,76.1,44.4,32,30.03,10.0,Variable,3.5,-,N/A,,Scattered Clouds,0,2013-05-06 20:58:00
4:58 PM,75.2,43.0,32,30.01,10.0,SE,4.6,-,N/A,,Mostly Cloudy,130,2013-05-06 21:58:00
5:58 PM,75.0,45.1,34,30.01,10.0,South,6.9,-,N/A,,Partly Cloudy,180,2013-05-06 22:58:00
6:58 PM,73.6,44.4,35,30.00,10.0,South,5.8,-,N/A,,Clear,180,2013-05-06 23:58:00
7:58 PM,70.7,45.3,40,29.99,10.0,ESE,5.8,-,N/A,,Partly Cloudy,120,2013-05-07 00:58:00
8:58 PM,64.4,48.2,56,29.99,10.0,East,8.1,-,N/A,,Mostly Cloudy,90,2013-05-07 01:58:00
9:58 PM,63.7,48.9,59,30.00,10.0,East,8.1,-,N/A,,Overcast,90,2013-05-07 02:58:00
10:58 PM,62.4,48.6,60,30.02,10.0,ESE,8.1,-,N/A,,Mostly Cloudy,110,2013-05-07 03:58:00
11:58 PM,61.3,49.5,65,30.03,10.0,ESE,4.6,-,N/A,,Overcast,110,2013-05-07 04:58:00